Weather History for KAFF - November, 2012

Change the Weather History Date:

Sunday, November 18, 2012

  Actual Average Record
Temperature  
Mean Temperature 49 °F -  
Max Temperature 59 °F 47 °F 72 °F (2008)
Min Temperature 39 °F 24 °F -2 °F (2000)
Degree Days  
Heating Degree Days 16    
Moisture  
Dew Point 17 °F    
Average Humidity 27    
Maximum Humidity 43    
Minimum Humidity 17    
Precipitation  
Precipitation 0.00 in - - ()
Sea Level Pressure  
Sea Level Pressure 30.02 in    
Wind  
Wind Speed 11 mph (WNW)    
Max Wind Speed 18 mph    
Max Gust Speed 26 mph    
Visibility 10 miles    
Events      
Averages and records for this station are not official NWS values.
T = Trace of Precipitation, MM = Missing Value Source: NWS Daily Summary

Daily Weather History Graph

Daily Weather History Graph

Search for Another Location

Airport or City:

Trip Planner

Search our weather history database for the weather conditions in past years. The results will help you decide how hot, cold, wet, or windy it might be!

Date:

Astronomy

Nov. 18, 2012 Rise Set
Actual Time 6:45 AM MST 4:42 PM MST
Civil Twilight 6:17 AM MST 5:11 PM MST
Nautical Twilight 5:44 AM MST 5:43 PM MST
Astronomical Twilight 5:13 AM MST 6:15 PM MST
Moon 11:15 AM MST (11/18) 10:04 PM MST (11/18)
Length of Visible Light 10h 54m
Length of Day
9h 56m
Waxing Crescent, 31% of the Moon is Illuminated
Nov 18
Waxing Crescent
Nov 20
First Quarter
Nov 28
Full
Dec 6
Last Quarter
Dec 13
New

Hourly Weather History & Observations

Time (MST) Temp. Windchill Dew Point Humidity Pressure Visibility Wind Dir Wind Speed Gust Speed Precip Events Conditions
4:58 AM 39.4 °F 31.8 °F 18.7 °F 43% 30.04 in 10.0 mi North 12.7 mph - N/A   Clear
5:58 AM 42.3 °F 33.8 °F 19.2 °F 40% 30.03 in 10.0 mi North 18.4 mph - N/A   Clear
6:58 AM 43.0 °F 38.2 °F 18.3 °F 37% 30.04 in 10.0 mi NW 8.1 mph - N/A   Clear
7:58 AM 44.1 °F 38.1 °F 18.5 °F 36% 30.05 in 10.0 mi North 11.5 mph - N/A   Clear
8:58 AM 50.7 °F - 19.6 °F 29% 30.07 in 10.0 mi SSW 3.5 mph - N/A   Clear
9:58 AM 54.5 °F - 19.4 °F 25% 30.07 in 10.0 mi SW 8.1 mph - N/A   Clear
10:58 AM 56.8 °F - 19.8 °F 24% 29.99 in 10.0 mi West 9.2 mph 17.3 mph N/A   Clear
11:41 AM 57.2 °F - 19.4 °F 23% 30.04 in 10.0 mi West 16.1 mph 24.2 mph N/A   Clear
11:58 AM 57.2 °F - 17.2 °F 21% 29.99 in 10.0 mi WSW 13.8 mph 26.5 mph N/A   Clear
12:58 PM 58.8 °F - 17.8 °F 20% 29.94 in 10.0 mi West 15.0 mph - N/A   Clear
1:58 PM 59.7 °F - 15.1 °F 17% 30.01 in 10.0 mi WSW 12.7 mph 19.6 mph N/A   Clear
2:58 PM 59.2 °F - 14.2 °F 17% 30.02 in 10.0 mi WSW 15.0 mph 20.7 mph N/A   Clear
3:58 PM 57.0 °F - 13.3 °F 18% 30.04 in 10.0 mi WSW 13.8 mph - N/A   Clear
4:58 PM 51.8 °F - 13.6 °F 22% 29.98 in 10.0 mi West 8.1 mph - N/A   Clear
5:58 PM 48.0 °F - 14.0 °F 26% 29.99 in 10.0 mi East 5.8 mph - N/A   Clear
6:58 PM 49.1 °F - 14.9 °F 26% 30.01 in 10.0 mi Variable 2.3 mph - N/A   Clear
7:58 PM 48.2 °F - 15.4 °F 27% 30.03 in 10.0 mi Variable 5.8 mph - N/A   Clear
8:58 PM 43.7 °F 39.1 °F 15.6 °F 32% 30.02 in 10.0 mi NNW 8.1 mph - N/A   Clear
9:58 PM 47.7 °F - 16.0 °F 28% 29.99 in 10.0 mi WNW 8.1 mph - N/A   Clear
10:58 PM 46.0 °F - 15.8 °F 30% 30.00 in 10.0 mi Variable 2.3 mph - N/A   Clear
11:58 PM 43.7 °F 36.3 °F 16.0 °F 33% 30.01 in 10.0 mi North 16.1 mph 23.0 mph N/A   Clear